Flood From: 19-02-2018 06:00 Until: 20-02-2018 06:00 warning for: Flood Level: Yellow info button

Although rather usual in this region, locally or potentially dangerous phenomena are expected. (such as local winds, summer thunderstorms, rising streams or high waves) Be aware and pay attention to the latest weather updates, especially if you carry out activities exposed to weather or close to a stream or shoreline. 


Meteo18 Weather Cam more information Meteo18 Weather Cam


Thunder radar more information blitzortung!


Rain radar more information rain snow radar


Visit our other weather sites:

Template documentation
and downloads

And another site



Weather Underground History page Text

Daily Summary for August 25, 2017 Units:  Metric    English   Both
« Previous Day
Next Day »
Daily Weekly Monthly Yearly Custom
  High: Low: Average:
Temperature: -17.8 °C -8.3 °C -5.2 °C
Dew Point: -17.8 °C -9.1 °C -7.7 °C
Humidity: Humidity % 58 % 76 %
Wind Speed: 0 km/h 0 km/h 6.4 km/h
Wind Gust: 0 km/h - -
Wind:- - SSW
Pressure: 0 hPa 34384.8 hPa -
Precipitation: 33.02 mm    
Historical Graphs
 
 
Tabular Data for August 25, 2017
Time Temperature Dew Point Pressure Wind Wind Speed Wind Gust Humidity Rainfall Rate (Hourly)
-17.8 °C -17.8 °C 0 hPa Calm     Humidity % 0 mm
00:02 -5.7 °C -8.2 °C 34442.4 hPa NE 15.6 km/h 25.9 km/h 75 % 0 mm
00:07 -5.7 °C -8.3 °C 34442.4 hPa NE 10.3 km/h 23.3 km/h 75 % 0 mm
00:12 -5.7 °C -8.2 °C 34442.4 hPa NNE 15.6 km/h 23.3 km/h 76 % 0 mm
00:17 -5.8 °C -8.2 °C 34442.4 hPa NNE 20.8 km/h 23.3 km/h 76 % 0 mm
00:22 -5.8 °C -8.3 °C 34442.4 hPa NE 7.7 km/h 23.3 km/h 76 % 0 mm
00:32 -5.9 °C -8.4 °C 34442.4 hPa NE 10.3 km/h 23.3 km/h 76 % 0 mm
00:37 -5.9 °C -8.3 °C 34442.4 hPa NNE 12.9 km/h 23.3 km/h 77 % 0 mm
00:42 -5.9 °C -8.3 °C 34428.8 hPa NE 12.9 km/h 18.2 km/h 77 % 0 mm
00:47 -5.9 °C -8.3 °C 34442.4 hPa NE 12.9 km/h 18.2 km/h 77 % 0 mm
00:52 -6 °C -8.3 °C 34428.8 hPa NE 10.3 km/h 20.8 km/h 77 % 0 mm
00:57 -6.1 °C -8.4 °C 34428.8 hPa NE 12.9 km/h 20.8 km/h 77 % 0 mm
01:02 -6.1 °C -8.4 °C 34428.8 hPa NE 2.6 km/h 20.8 km/h 77 % 0 mm
01:07 -6.2 °C -8.4 °C 34428.8 hPa East 2.6 km/h 15.6 km/h 78 % 0 mm
01:12 -6.3 °C -8.5 °C 34428.8 hPa NNW 2.6 km/h 15.6 km/h 78 % 0 mm
01:22 -6.3 °C -8.4 °C 34428.8 hPa North 5.1 km/h 10.3 km/h 79 % 0 mm
01:27 -6.4 °C -8.6 °C 34428.8 hPa Calm   10.3 km/h 79 % 0 mm
01:32 -6.5 °C -8.5 °C 34428.8 hPa North 7.7 km/h 10.3 km/h 80 % 0 mm
01:37 -6.6 °C -8.6 °C 34428.8 hPa Calm   7.7 km/h 80 % 0 mm
01:42 -6.6 °C -8.5 °C 34428.8 hPa North 5.1 km/h 7.7 km/h 81 % 0 mm
01:47 -6.6 °C -8.5 °C 34428.8 hPa North 2.6 km/h 7.7 km/h 81 % 0 mm
01:52 -6.6 °C -8.6 °C 34428.8 hPa North 5.1 km/h 7.7 km/h 80 % 0 mm
02:02 -6.6 °C -8.6 °C 34428.8 hPa Calm   12.9 km/h 80 % 0 mm
02:12 -6.7 °C -8.6 °C 34418.7 hPa NE 2.6 km/h 12.9 km/h 81 % 0 mm
02:22 -6.8 °C -8.7 °C 34418.7 hPa NNE 2.6 km/h 7.7 km/h 81 % 0 mm
02:27 -6.8 °C -8.7 °C 34418.7 hPa Calm   7.7 km/h 81 % 0 mm
02:32 -6.9 °C -8.7 °C 34418.7 hPa Calm   7.7 km/h 82 % 0 mm
02:37 -6.9 °C -8.7 °C 34418.7 hPa NNW 5.1 km/h 5.1 km/h 82 % 0 mm
02:42 -6.9 °C -8.7 °C 34418.7 hPa NNE 5.1 km/h 5.1 km/h 82 % 0 mm
02:47 -6.9 °C -8.7 °C 34418.7 hPa NNE 2.6 km/h 7.7 km/h 82 % 0 mm
02:52 -6.9 °C -8.7 °C 34418.7 hPa North 2.6 km/h 7.7 km/h 82 % 0 mm
02:57 -6.9 °C -8.7 °C 34418.7 hPa Calm   7.7 km/h 82 % 0 mm
03:02 -7 °C -8.8 °C 34418.7 hPa North 2.6 km/h 7.7 km/h 82 % 0 mm
03:12 -7.2 °C -8.8 °C 34418.7 hPa Calm   5.1 km/h 83 % 0 mm
03:17 -7.2 °C -8.8 °C 34418.7 hPa Calm   5.1 km/h 83 % 0 mm
03:22 -7.2 °C -8.8 °C 34418.7 hPa NNE 2.6 km/h 5.1 km/h 83 % 0 mm
03:27 -7.2 °C -8.9 °C 34418.7 hPa NNE 2.6 km/h 5.1 km/h 83 % 0 mm
03:32 -7.3 °C -8.8 °C 34418.7 hPa Calm   5.1 km/h 84 % 0 mm
03:37 -7.2 °C -8.7 °C 34405.1 hPa NE 7.7 km/h 7.7 km/h 84 % 0 mm
03:42 -7.1 °C -8.7 °C 34405.1 hPa NNE 2.6 km/h 7.7 km/h 83 % 0 mm
03:52 -7.2 °C -8.8 °C 34405.1 hPa Calm   10.3 km/h 83 % 0 mm
03:57 -7.2 °C -8.8 °C 34405.1 hPa NE 5.1 km/h 5.1 km/h 83 % 0 mm
04:02 -7.2 °C -8.9 °C 34405.1 hPa Calm   5.1 km/h 83 % 0 mm
04:12 -7.3 °C -8.8 °C 34405.1 hPa Calm   7.7 km/h 84 % 0 mm
04:17 -7.3 °C -8.8 °C 34405.1 hPa North 2.6 km/h 2.6 km/h 84 % 0 mm
04:22 -7.4 °C -8.9 °C 34405.1 hPa North 2.6 km/h 2.6 km/h 84 % 0 mm
04:27 -7.4 °C -8.8 °C 34405.1 hPa NNE 2.6 km/h 2.6 km/h 85 % 0 mm
04:32 -7.4 °C -8.8 °C 34405.1 hPa Calm   2.6 km/h 85 % 0 mm
04:37 -7.5 °C -8.9 °C 34405.1 hPa North 2.6 km/h 5.1 km/h 85 % 0 mm
04:42 -7.6 °C -8.9 °C 34405.1 hPa NW 2.6 km/h 5.1 km/h 86 % 0 mm
04:47 -7.6 °C -9 °C 34405.1 hPa WNW 2.6 km/h 5.1 km/h 85 % 0 mm
04:52 -7.6 °C -8.8 °C 34405.1 hPa NW 2.6 km/h 5.1 km/h 87 % 0 mm
05:02 -7.6 °C -8.8 °C 34405.1 hPa NW 2.6 km/h 5.1 km/h 87 % 0 mm
05:07 -7.7 °C -8.9 °C 34405.1 hPa WNW 2.6 km/h 5.1 km/h 87 % 0 mm
05:12 -7.6 °C -8.8 °C 34395 hPa NNW 2.6 km/h 5.1 km/h 87 % 0 mm
05:17 -7.6 °C -8.8 °C 34405.1 hPa Calm   5.1 km/h 87 % 0 mm
05:22 -7.6 °C -8.9 °C 34405.1 hPa Calm   5.1 km/h 86 % 0 mm
05:32 -7.7 °C -8.9 °C 34395 hPa Calm   5.1 km/h 87 % 0 mm
05:42 -7.8 °C -9.1 °C 34395 hPa Calm   2.6 km/h 87 % 0 mm
05:52 -7.8 °C -8.9 °C 34395 hPa Calm   2.6 km/h 88 % 0 mm
06:02 -7.9 °C -9.1 °C 34395 hPa Calm   2.6 km/h 88 % 0 mm
06:07 -7.9 °C -8.9 °C 34405.1 hPa Calm   5.1 km/h 89 % 0 mm
06:12 -7.9 °C -8.9 °C 34395 hPa Calm   5.1 km/h 89 % 0 mm
06:17 -7.9 °C -8.9 °C 34405.1 hPa Calm   2.6 km/h 89 % 0 mm
06:22 -8 °C -8.9 °C 34405.1 hPa Calm   2.6 km/h 90 % 0 mm
06:32 -8.2 °C -9.1 °C 34405.1 hPa Calm   5.1 km/h 90 % 0 mm
06:37 -8.2 °C -9 °C 34405.1 hPa Calm   5.1 km/h 91 % 0 mm
06:42 -8.2 °C -9.1 °C 34405.1 hPa Calm     91 % 0 mm
06:52 -8.2 °C -8.9 °C 34418.7 hPa Calm   2.6 km/h 92 % 0 mm
06:57 -8.3 °C -9.1 °C 34405.1 hPa Calm   2.6 km/h 91 % 0 mm
07:02 -8.3 °C -9 °C 34405.1 hPa Calm     92 % 0 mm
07:12 -8.3 °C -9.1 °C 34405.1 hPa Calm     91 % 0 mm
07:17 -8.3 °C -9.1 °C 34405.1 hPa Calm   2.6 km/h 91 % 0 mm
07:22 -8.3 °C -9 °C 34405.1 hPa Calm   2.6 km/h 92 % 0 mm
07:32 -8.2 °C -8.9 °C 34418.7 hPa Calm   5.1 km/h 92 % 0 mm
07:42 -7.9 °C -8.7 °C 34418.7 hPa Calm     92 % 0 mm
07:52 -7.7 °C -8.7 °C 34428.8 hPa Calm     89 % 0 mm
08:02 -7.6 °C -8.6 °C 34418.7 hPa Calm     90 % 0 mm
08:07 -7.6 °C -8.6 °C 34418.7 hPa Calm   2.6 km/h 89 % 0 mm
08:12 -7.6 °C -8.6 °C 34418.7 hPa Calm   2.6 km/h 89 % 0 mm
08:17 -7.4 °C -8.4 °C 34418.7 hPa Calm   2.6 km/h 89 % 0 mm
08:22 -7.4 °C -8.4 °C 34418.7 hPa Calm   2.6 km/h 89 % 0 mm
08:32 -7.3 °C -8.3 °C 34418.7 hPa Calm     89 % 0 mm
08:37 -7.2 °C -8.3 °C 34418.7 hPa Calm     88 % 0 mm
08:47 -7.2 °C -8.3 °C 34428.8 hPa Calm   2.6 km/h 88 % 0 mm
08:52 -7.2 °C -8.2 °C 34428.8 hPa SW 2.6 km/h 2.6 km/h 89 % 0 mm
09:02 -7.1 °C -8.2 °C 34428.8 hPa SSE 2.6 km/h 5.1 km/h 88 % 0 mm
09:07 -7.1 °C -8.1 °C 34418.7 hPa Calm   10.3 km/h 89 % 0 mm
09:12 -7.1 °C -8.1 °C 34405.1 hPa East 2.6 km/h 10.3 km/h 90 % 0 mm
09:17 -7.2 °C -8.1 °C 34405.1 hPa Calm   7.7 km/h 90 % 33.02 mm
09:27 -7.2 °C -8 °C 34405.1 hPa Calm   5.1 km/h 91 % 33.02 mm
09:32 -7.2 °C -7.9 °C 34405.1 hPa Calm   5.1 km/h 92 % 33.02 mm
09:37 -7.2 °C -7.9 °C 34418.7 hPa West 2.6 km/h 5.1 km/h 92 % 33.02 mm
09:47 -7.2 °C -7.8 °C 34405.1 hPa Calm   5.1 km/h 93 % 33.02 mm
09:52 -7.1 °C -7.8 °C 34405.1 hPa ENE 2.6 km/h 5.1 km/h 93 % 33.02 mm
10:02 -7.1 °C -7.8 °C 34418.7 hPa Calm   2.6 km/h 92 % 33.02 mm
10:12 -6.7 °C -7.4 °C 34418.7 hPa Calm   5.1 km/h 92 % 33.02 mm
10:17 -6.3 °C -7 °C 34418.7 hPa Calm   2.6 km/h 93 % 0 mm
10:22 -6.2 °C -7.1 °C 34428.8 hPa Calm   2.6 km/h 90 % 0 mm
10:32 -6.2 °C -7.2 °C 34442.4 hPa SW 5.1 km/h 5.1 km/h 89 % 0 mm
10:42 -6.2 °C -7.1 °C 34428.8 hPa SSW 2.6 km/h 10.3 km/h 90 % 0 mm
10:52 -5.7 °C -6.8 °C 34428.8 hPa SSW 5.1 km/h 10.3 km/h 89 % 0 mm
10:57 -5.5 °C -6.9 °C 34428.8 hPa SSE 10.3 km/h 10.3 km/h 86 % 0 mm
11:02 -5.3 °C -6.8 °C 34428.8 hPa SSW 10.3 km/h 10.3 km/h 85 % 0 mm
11:12 -4.9 °C -6.6 °C 34428.8 hPa SSW 2.6 km/h 15.6 km/h 83 % 0 mm
11:17 -4.6 °C -6.3 °C 34428.8 hPa Calm   15.6 km/h 83 % 0 mm
11:22 -4.4 °C -6.6 °C 34428.8 hPa Calm   15.6 km/h 79 % 0 mm
11:32 -3.9 °C -6.5 °C 34428.8 hPa SW 15.6 km/h 15.6 km/h 75 % 0 mm
11:42 -3.7 °C -6.8 °C 34428.8 hPa WSW 15.6 km/h 18.2 km/h 71 % 0 mm
11:52 -3.7 °C -6.8 °C 34428.8 hPa WSW 15.6 km/h 25.9 km/h 71 % 0 mm
12:02 -3.5 °C -6.8 °C 34428.8 hPa WNW 7.7 km/h 31.1 km/h 70 % 0 mm
12:07 -3.5 °C -6.8 °C 34428.8 hPa WSW 15.6 km/h 25.9 km/h 70 % 0 mm
12:12 -3.4 °C -6.6 °C 34428.8 hPa WSW 7.7 km/h 25.9 km/h 71 % 0 mm
12:17 -3.3 °C -6.7 °C 34428.8 hPa SW 15.6 km/h 28.5 km/h 69 % 0 mm
12:22 -3.4 °C -6.6 °C 34428.8 hPa SW 18.2 km/h 28.5 km/h 71 % 0 mm
12:27 -3.3 °C -6.7 °C 34428.8 hPa West 12.9 km/h 28.5 km/h 69 % 0 mm
12:32 -3.2 °C -6.4 °C 34418.7 hPa SW 28.5 km/h 28.5 km/h 70 % 0 mm
12:37 -3.1 °C -6.3 °C 34418.7 hPa NW 12.9 km/h 28.5 km/h 70 % 0 mm
12:47 -3.1 °C -6.4 °C 34418.7 hPa SW 10.3 km/h 28.5 km/h 70 % 0 mm
12:52 -3 °C -6.4 °C 34418.7 hPa WSW 10.3 km/h 28.5 km/h 69 % 0 mm
12:57 -2.9 °C -6.2 °C 34418.7 hPa West 7.7 km/h 28.5 km/h 70 % 0 mm
13:02 -2.9 °C -6.6 °C 34418.7 hPa SW 10.3 km/h 28.5 km/h 67 % 0 mm
13:12 -2.8 °C -6.4 °C 34418.7 hPa West 18.2 km/h 28.5 km/h 68 % 0 mm
13:17 -2.8 °C -6.5 °C 34418.7 hPa South 31.1 km/h 38.8 km/h 67 % 0 mm
13:22 -2.7 °C -6.4 °C 34418.7 hPa West 5.1 km/h 38.8 km/h 67 % 0 mm
13:32 -2.6 °C -6.4 °C 34405.1 hPa West 15.6 km/h 36.2 km/h 66 % 0 mm
13:42 -2.7 °C -6.6 °C 34418.7 hPa West 18.2 km/h 28.5 km/h 66 % 0 mm
13:52 -2.3 °C -6.3 °C 34405.1 hPa West 12.9 km/h 31.1 km/h 65 % 0 mm
14:02 -2.2 °C -6.2 °C 34405.1 hPa SSW 25.9 km/h 33.6 km/h 65 % 0 mm
14:07 -2.1 °C -6.2 °C 34405.1 hPa WSW 23.3 km/h 31.1 km/h 64 % 0 mm
14:12 -2.1 °C -6.4 °C 34405.1 hPa West 23.3 km/h 31.1 km/h 63 % 0 mm
14:17 -2.2 °C -6.3 °C 34405.1 hPa West 10.3 km/h 36.2 km/h 64 % 0 mm
14:22 -2.1 °C -6.6 °C 34405.1 hPa West 10.3 km/h 36.2 km/h 61 % 0 mm
14:32 -2.1 °C -6.6 °C 34405.1 hPa SSW 7.7 km/h 36.2 km/h 62 % 0 mm
14:37 -1.9 °C -6.5 °C 34405.1 hPa WSW 20.8 km/h 31.1 km/h 61 % 0 mm
14:42 -1.9 °C -6.6 °C 34405.1 hPa SW 18.2 km/h 31.1 km/h 60 % 0 mm
14:52 -2.1 °C -6.7 °C 34405.1 hPa WSW 15.6 km/h 31.1 km/h 61 % 0 mm
15:02 -2 °C -6.4 °C 34405.1 hPa WNW 23.3 km/h 31.1 km/h 62 % 0 mm
15:07 -2 °C -6.9 °C 34405.1 hPa SW 15.6 km/h 31.1 km/h 59 % 0 mm
15:12 -2.1 °C -6.8 °C 34405.1 hPa WSW 7.7 km/h 31.1 km/h 60 % 0 mm
15:17 -1.9 °C -6.5 °C 34395 hPa WSW 20.8 km/h 31.1 km/h 61 % 0 mm
15:32 -1.9 °C -6.8 °C 34395 hPa West 15.6 km/h 31.1 km/h 59 % 0 mm
15:42 -1.7 °C -6.8 °C 34395 hPa WNW 15.6 km/h 28.5 km/h 58 % 0 mm
15:47 -1.8 °C -6.7 °C 34395 hPa WSW 20.8 km/h 31.1 km/h 59 % 0 mm
15:52 -1.8 °C -6.7 °C 34395 hPa SW 12.9 km/h 31.1 km/h 59 % 0 mm
16:02 -1.7 °C -6.7 °C 34384.8 hPa WSW 12.9 km/h 33.6 km/h 58 % 0 mm
16:12 -1.9 °C -6.8 °C 34384.8 hPa West 5.1 km/h 36.2 km/h 59 % 0 mm
16:17 -1.8 °C -6.7 °C 34384.8 hPa WNW 10.3 km/h 28.5 km/h 59 % 0 mm
16:22 -1.7 °C -6.8 °C 34384.8 hPa SW 12.9 km/h 28.5 km/h 58 % 0 mm
16:32 -1.9 °C -6.6 °C 34384.8 hPa WSW 18.2 km/h 31.1 km/h 60 % 0 mm
16:42 -2 °C -6.7 °C 34384.8 hPa WSW 20.8 km/h 31.1 km/h 60 % 0 mm
16:52 -1.8 °C -6.7 °C 34384.8 hPa West 23.3 km/h 33.6 km/h 59 % 0 mm
17:02 -1.8 °C -6.7 °C 34384.8 hPa WSW 23.3 km/h 49.2 km/h 59 % 0 mm
17:07 -1.9 °C -6.6 °C 34384.8 hPa WSW 28.5 km/h 38.8 km/h 60 % 0 mm
17:12 -2.1 °C -6.9 °C 34384.8 hPa WSW 25.9 km/h 38.8 km/h 59 % 0 mm
17:17 -2.1 °C -6.9 °C 34384.8 hPa WSW 15.6 km/h 36.2 km/h 59 % 0 mm
17:22 -2 °C -6.9 °C 34384.8 hPa WSW 15.6 km/h 36.2 km/h 59 % 0 mm
17:27 -1.9 °C -6.8 °C 34384.8 hPa WSW 15.6 km/h 31.1 km/h 59 % 0 mm
17:32 -1.9 °C -7 °C 34384.8 hPa West 18.2 km/h 31.1 km/h 58 % 0 mm
17:37 -2.1 °C -7.1 °C 34384.8 hPa SW 12.9 km/h 36.2 km/h 58 % 0 mm
17:42 -2.2 °C -7.1 °C 34384.8 hPa WSW 20.8 km/h 36.2 km/h 59 % 0 mm
17:52 -2.3 °C -7.1 °C 34384.8 hPa WSW 18.2 km/h 36.2 km/h 60 % 0 mm
17:57 -2.3 °C -6.9 °C 34384.8 hPa West 10.3 km/h 23.3 km/h 61 % 0 mm
18:02 -2.4 °C -6.8 °C 34384.8 hPa SW 7.7 km/h 23.3 km/h 62 % 0 mm
18:12 -2.5 °C -6.9 °C 34384.8 hPa WSW 15.6 km/h 33.6 km/h 62 % 0 mm
18:17 -2.6 °C -6.8 °C 34384.8 hPa West 15.6 km/h 33.6 km/h 63 % 0 mm
18:22 -2.5 °C -6.8 °C 34384.8 hPa SW 15.6 km/h 28.5 km/h 63 % 0 mm
18:32 -2.4 °C -6.7 °C 34384.8 hPa West 18.2 km/h 28.5 km/h 63 % 0 mm
18:37 -2.3 °C -6.8 °C 34384.8 hPa SW 15.6 km/h 28.5 km/h 62 % 0 mm
18:42 -2.4 °C -6.7 °C 34384.8 hPa WSW 10.3 km/h 28.5 km/h 63 % 0 mm
18:47 -2.5 °C -6.8 °C 34384.8 hPa WSW 12.9 km/h 28.5 km/h 63 % 0 mm
18:57 -2.6 °C -6.9 °C 34384.8 hPa West 7.7 km/h 31.1 km/h 63 % 0 mm
19:02 -2.6 °C -6.9 °C 34384.8 hPa WSW 15.6 km/h 31.1 km/h 63 % 0 mm
19:12 -2.7 °C -6.8 °C 34384.8 hPa SSW 5.1 km/h 31.1 km/h 64 % 0 mm
19:17 -2.7 °C -6.8 °C 34384.8 hPa SW 12.9 km/h 25.9 km/h 64 % 0 mm
19:22 -2.8 °C -6.7 °C 34384.8 hPa SW 7.7 km/h 25.9 km/h 65 % 0 mm
19:32 -2.8 °C -6.7 °C 34384.8 hPa SW 5.1 km/h 23.3 km/h 65 % 0 mm
19:37 -2.8 °C -6.8 °C 34384.8 hPa SSW 7.7 km/h 23.3 km/h 65 % 0 mm
19:42 -2.8 °C -6.8 °C 34395 hPa WSW 7.7 km/h 23.3 km/h 65 % 0 mm
19:52 -2.9 °C -6.8 °C 34395 hPa WSW 2.6 km/h 18.2 km/h 65 % 0 mm
19:57 -2.9 °C -6.8 °C 34395 hPa WSW 2.6 km/h 12.9 km/h 65 % 0 mm
20:02 -2.9 °C -6.8 °C 34395 hPa WSW 5.1 km/h 12.9 km/h 66 % 0 mm
20:12 -3.2 °C -6.8 °C 34395 hPa Calm   10.3 km/h 67 % 0 mm
20:17 -3.2 °C -6.8 °C 34395 hPa Calm   5.1 km/h 68 % 0 mm
20:22 -3.3 °C -6.8 °C 34395 hPa Calm   5.1 km/h 68 % 0 mm
20:32 -3.5 °C -6.8 °C 34405.1 hPa Calm   2.6 km/h 70 % 0 mm
20:37 -3.6 °C -6.9 °C 34405.1 hPa Calm   2.6 km/h 70 % 0 mm
20:42 -3.8 °C -6.9 °C 34405.1 hPa Calm   2.6 km/h 71 % 0 mm
20:47 -3.9 °C -6.9 °C 34405.1 hPa Calm     72 % 0 mm
20:52 -4.1 °C -6.9 °C 34405.1 hPa Calm     73 % 0 mm
20:57 -4.2 °C -6.9 °C 34405.1 hPa Calm     74 % 0 mm
21:02 -4.3 °C -6.9 °C 34405.1 hPa Calm     75 % 0 mm
21:12 -4.6 °C -7 °C 34405.1 hPa Calm     77 % 0 mm
21:17 -4.7 °C -6.9 °C 34418.7 hPa Calm     78 % 0 mm
21:22 -4.8 °C -7.1 °C 34418.7 hPa Calm     78 % 0 mm
21:32 -4.8 °C -7.1 °C 34418.7 hPa Calm     78 % 0 mm
21:42 -4.9 °C -7.2 °C 34418.7 hPa Calm     78 % 0 mm
21:52 -5.1 °C -7.3 °C 34418.7 hPa Calm     78 % 0 mm
21:57 -5.2 °C -7.2 °C 34428.8 hPa Calm     80 % 0 mm
22:02 -5.3 °C -7.3 °C 34428.8 hPa Calm     80 % 0 mm
22:12 -5.6 °C -7.4 °C 34428.8 hPa Calm     82 % 0 mm
22:17 -5.7 °C -7.4 °C 34428.8 hPa Calm     83 % 0 mm
22:22 -5.8 °C -7.4 °C 34428.8 hPa Calm     83 % 0 mm
22:27 -5.8 °C -7.3 °C 34428.8 hPa Calm     84 % 0 mm
22:32 -5.9 °C -7.6 °C 34428.8 hPa Calm     83 % 0 mm
22:42 -5.7 °C -7.5 °C 34428.8 hPa Calm     82 % 0 mm
22:52 -5.9 °C -7.6 °C 34428.8 hPa Calm     83 % 0 mm
22:57 -6 °C -7.6 °C 34428.8 hPa Calm     84 % 0 mm
23:07 -5.9 °C -7.6 °C 34442.4 hPa Calm     83 % 0 mm
23:12 -6 °C -7.7 °C 34442.4 hPa Calm     83 % 0 mm
23:17 -6.1 °C -7.6 °C 34442.4 hPa Calm     84 % 0 mm
23:22 -6.2 °C -7.8 °C 34442.4 hPa Calm     84 % 0 mm
23:27 -6.3 °C -7.8 °C 34442.4 hPa Calm     85 % 0 mm
23:32 -6.4 °C -7.8 °C 34442.4 hPa Calm     86 % 0 mm
23:37 -6.4 °C -7.7 °C 34442.4 hPa Calm     87 % 0 mm
23:42 -6.5 °C -7.7 °C 34442.4 hPa Calm     87 % 0 mm
23:52 -6.6 °C -7.8 °C 34442.4 hPa Calm     87 % 0 mm
Meteo18
Compliments of Weather Underground - 4 mb

Script developed by  Jim McMurry - jmcmurry@mwt.net Adapted for the template by  Wim van der Kuil - Leuven-Template.eu

You find our weather info also at:

European Weather Network

Weather Underground

Equipment we use:

Weather-station
Davis Vue

Weather-program
Meteobridge

Weather-server
Raspberry PI 2 B+

Provider
1 and 1

Davis Vue

Meteobridge

Raspberry PI 2 B+

1 and 1